Location: Sebastopol
(38.4021°N, 122.8239°W)
Time: 14:58:07
(UTC+00:00)

Meteor PRIRODA - Pass Details

Date: 29 October 2020
Orbit: 491 x 509 km, 97.6° (Epoch: 01 December)

Event Time Altitude Azimuth Distance (km) Brightness Sun altitude
Rises 13:11:16 0° 17° (NNE) 2,587 7.4 -17.0°
Reaches altitude 10° 13:13:23 10° 22° (NNE) 1,702 6.5 -16.5°
Maximum altitude 13:16:59 54° 100° (E) 613 4.4 -15.8°
Drops below altitude 10° 13:20:34 10° 178° (S) 1,699 6.4 -15.1°
Sets 13:22:40 0° 183° (S) 2,581 7.3 -14.7°
